Time,TemperatureF,DewpointF,PressureIn,WindDirection,WindDirectionDegrees,WindSpeedMPH,WindSpeedGustMPH,Humidity,HourlyPrecipIn,Conditions,Clouds,dailyrainin,SoftwareType,DateUTC
2013-09-11 00:57:00,74.7,73.1,30.22,East,84,0.0,0.0,94,0.00,,,0.00,Meteorologica,2013-09-11 04:57:00,
2013-09-11 01:00:00,74.6,74.6,30.14,SSW,200,0.0,0.0,100,0.00,,,0.00,Meteorologica,2013-09-11 05:00:00,
2013-09-11 01:01:00,74.6,74.6,30.15,SSW,200,0.0,0.0,100,0.00,,,0.00,Meteorologica,2013-09-11 05:01:00,
2013-09-11 01:02:00,74.5,74.5,30.14,SSW,200,0.0,0.0,100,0.00,,,0.00,Meteorologica,2013-09-11 05:02:00,
2013-09-11 01:03:00,74.6,73.4,30.22,East,84,0.0,0.0,96,0.00,,,0.00,Meteorologica,2013-09-11 05:03:00,
2013-09-11 01:04:00,74.4,74.4,30.14,SSW,200,0.0,0.0,100,0.00,,,0.00,Meteorologica,2013-09-11 05:04:00,
2013-09-11 01:05:00,74.6,74.6,30.14,SSW,200,0.0,0.0,100,0.00,,,0.00,Meteorologica,2013-09-11 05:05:00,
2013-09-11 01:06:00,74.4,74.4,30.15,SSW,200,0.0,0.0,100,0.00,,,0.00,Meteorologica,2013-09-11 05:06:00,
2013-09-11 01:07:00,74.4,74.4,30.14,SSW,200,0.0,0.0,100,0.00,,,0.00,Meteorologica,2013-09-11 05:07:00,
2013-09-11 01:08:00,74.5,73.4,30.22,East,84,0.0,0.0,96,0.00,,,0.00,Meteorologica,2013-09-11 05:08:00,
2013-09-11 01:09:00,74.4,74.4,30.14,SSW,200,0.0,0.0,100,0.00,,,0.00,Meteorologica,2013-09-11 05:09:00,
2013-09-11 01:10:00,74.4,74.4,30.14,SSW,200,0.0,0.0,100,0.00,,,0.00,Meteorologica,2013-09-11 05:10:00,
2013-09-11 01:11:00,74.4,74.4,30.14,SSW,200,0.0,0.0,100,0.00,,,0.00,Meteorologica,2013-09-11 05:11:00,
2013-09-11 01:12:00,74.2,74.2,30.14,SSW,200,0.0,0.0,100,0.00,,,0.00,Meteorologica,2013-09-11 05:12:00,
2013-09-11 01:13:00,74.3,73.7,30.22,East,84,0.0,0.0,98,0.00,,,0.00,Meteorologica,2013-09-11 05:13:00,
2013-09-11 01:14:00,74.3,74.3,30.14,SSW,200,0.0,0.0,100,0.00,,,0.00,Meteorologica,2013-09-11 05:14:00,
2013-09-11 01:15:00,74.4,74.4,30.14,SSW,200,0.0,0.0,100,0.00,,,0.00,Meteorologica,2013-09-11 05:15:00,
2013-09-11 01:16:00,74.2,74.2,30.14,SSW,200,0.0,0.0,100,0.00,,,0.00,Meteorologica,2013-09-11 05:16:00,
2013-09-11 01:17:00,74.2,74.2,30.14,SSW,200,0.0,0.0,100,0.00,,,0.00,Meteorologica,2013-09-11 05:17:00,
2013-09-11 01:18:00,74.3,74.0,30.22,East,84,0.0,0.0,99,0.00,,,0.00,Meteorologica,2013-09-11 05:18:00,
2013-09-11 01:19:00,74.3,74.3,30.14,SSW,200,0.0,0.0,100,0.00,,,0.00,Meteorologica,2013-09-11 05:19:00,
2013-09-11 01:20:00,74.3,74.3,30.14,SSW,200,0.0,0.0,100,0.00,,,0.00,Meteorologica,2013-09-11 05:20:00,
2013-09-11 01:21:00,74.2,74.2,30.14,SSW,200,0.0,0.0,100,0.00,,,0.00,Meteorologica,2013-09-11 05:21:00,
2013-09-11 01:22:00,74.1,74.1,30.14,SSW,200,0.0,0.0,100,0.00,,,0.00,Meteorologica,2013-09-11 05:22:00,
2013-09-11 01:23:00,74.0,74.0,30.23,East,84,0.0,0.0,100,0.00,,,0.00,Meteorologica,2013-09-11 05:23:00,
2013-09-11 01:24:00,74.2,74.2,30.14,SSW,200,0.0,0.0,100,0.00,,,0.00,Meteorologica,2013-09-11 05:24:00,
2013-09-11 01:25:00,74.2,74.2,30.14,SSW,200,0.0,0.0,100,0.00,,,0.00,Meteorologica,2013-09-11 05:25:00,
2013-09-11 01:26:00,74.2,74.2,30.14,SSW,200,0.0,0.0,100,0.00,,,0.00,Meteorologica,2013-09-11 05:26:00,
2013-09-11 01:27:00,74.2,74.2,30.14,SSW,200,0.0,0.0,100,0.00,,,0.00,Meteorologica,2013-09-11 05:27:00,
2013-09-11 01:28:00,74.1,74.1,30.23,East,84,0.0,0.0,100,0.00,,,0.00,Meteorologica,2013-09-11 05:28:00,
2013-09-11 01:29:00,74.2,74.2,30.14,SSW,200,0.0,0.0,100,0.00,,,0.00,Meteorologica,2013-09-11 05:29:00,
2013-09-11 01:30:00,74.2,74.2,30.14,SSW,200,0.0,0.0,100,0.00,,,0.00,Meteorologica,2013-09-11 05:30:00,
2013-09-11 01:31:00,74.2,74.2,30.14,SSW,200,0.0,0.0,100,0.00,,,0.00,Meteorologica,2013-09-11 05:31:00,
2013-09-11 01:32:00,74.2,74.2,30.14,SSW,200,0.0,0.0,100,0.00,,,0.00,Meteorologica,2013-09-11 05:32:00,
2013-09-11 01:33:00,73.8,73.8,30.22,East,84,0.0,0.0,100,0.00,,,0.00,Meteorologica,2013-09-11 05:33:00,
2013-09-11 01:34:00,74.2,74.2,30.14,SSW,200,0.0,0.0,100,0.00,,,0.00,Meteorologica,2013-09-11 05:34:00,
2013-09-11 01:35:00,74.1,74.1,30.13,SSW,200,0.0,0.0,100,0.00,,,0.00,Meteorologica,2013-09-11 05:35:00,
2013-09-11 01:36:00,74.2,74.2,30.14,SSW,200,0.0,0.0,100,0.00,,,0.00,Meteorologica,2013-09-11 05:36:00,
2013-09-11 01:37:00,74.0,74.0,30.13,SSW,200,0.0,0.0,100,0.00,,,0.00,Meteorologica,2013-09-11 05:37:00,
2013-09-11 01:38:00,73.6,73.6,30.22,East,84,0.0,0.0,100,0.00,,,0.00,Meteorologica,2013-09-11 05:38:00,
2013-09-11 01:39:00,74.0,74.0,30.13,SSW,200,0.0,0.0,100,0.00,,,0.00,Meteorologica,2013-09-11 05:39:00,
2013-09-11 01:40:00,74.1,74.1,30.13,SSW,200,0.0,0.0,100,0.00,,,0.00,Meteorologica,2013-09-11 05:40:00,
2013-09-11 01:41:00,74.0,74.0,30.13,SSW,200,0.0,0.0,100,0.00,,,0.00,Meteorologica,2013-09-11 05:41:00,
2013-09-11 01:42:00,74.1,74.1,30.13,SSW,200,0.0,0.0,100,0.00,,,0.00,Meteorologica,2013-09-11 05:42:00,
2013-09-11 01:43:00,73.5,73.5,30.22,East,84,0.0,0.0,100,0.00,,,0.00,Meteorologica,2013-09-11 05:43:00,
2013-09-11 01:44:00,74.2,74.2,30.13,SSW,200,0.0,0.0,100,0.00,,,0.00,Meteorologica,2013-09-11 05:44:00,
2013-09-11 01:45:00,74.0,74.0,30.13,SSW,200,0.0,0.0,100,0.00,,,0.00,Meteorologica,2013-09-11 05:45:00,
2013-09-11 01:46:00,74.0,74.0,30.13,SSW,200,0.0,0.0,100,0.00,,,0.00,Meteorologica,2013-09-11 05:46:00,
2013-09-11 01:47:00,74.0,74.0,30.13,SSW,200,0.0,0.0,100,0.00,,,0.00,Meteorologica,2013-09-11 05:47:00,
2013-09-11 01:48:00,74.0,74.0,30.13,SSW,200,0.0,0.0,100,0.00,,,0.00,Meteorologica,2013-09-11 05:48:00,
2013-09-11 01:49:00,73.3,73.3,30.22,East,84,0.0,0.0,100,0.00,,,0.00,Meteorologica,2013-09-11 05:49:00,
2013-09-11 01:50:00,74.0,74.0,30.13,SSW,200,0.0,0.0,100,0.00,,,0.00,Meteorologica,2013-09-11 05:50:00,
2013-09-11 01:51:00,74.1,74.1,30.13,SSW,200,0.0,0.0,100,0.00,,,0.00,Meteorologica,2013-09-11 05:51:00,
2013-09-11 01:52:00,74.0,74.0,30.13,SSW,200,0.0,0.0,100,0.00,,,0.00,Meteorologica,2013-09-11 05:52:00,
2013-09-11 01:53:00,74.0,74.0,30.13,SSW,200,0.0,0.0,100,0.00,,,0.00,Meteorologica,2013-09-11 05:53:00,
2013-09-11 01:54:00,73.4,73.4,30.22,East,84,0.0,0.0,100,0.00,,,0.00,Meteorologica,2013-09-11 05:54:00,
2013-09-11 01:55:00,73.9,73.9,30.12,SSW,200,0.0,0.0,100,0.00,,,0.00,Meteorologica,2013-09-11 05:55:00,
2013-09-11 01:56:00,74.0,74.0,30.13,SSW,200,0.0,0.0,100,0.00,,,0.00,Meteorologica,2013-09-11 05:56:00,
2013-09-11 01:57:00,74.0,74.0,30.12,SSW,200,0.0,0.0,100,0.00,,,0.00,Meteorologica,2013-09-11 05:57:00,
2013-09-11 01:58:00,74.0,74.0,30.12,SSW,200,0.0,0.0,100,0.00,,,0.00,Meteorologica,2013-09-11 05:58:00,
2013-09-11 01:59:00,73.3,73.3,30.22,East,84,0.0,0.0,100,0.00,,,0.00,Meteorologica,2013-09-11 05:59:00,
2013-09-11 02:05:00,73.3,73.3,30.22,East,84,0.0,0.0,100,0.00,,,0.00,Meteorologica,2013-09-11 06:05:00,
2013-09-11 02:10:00,73.2,73.2,30.22,East,84,0.0,0.0,100,0.00,,,0.00,Meteorologica,2013-09-11 06:10:00,
2013-09-11 02:15:00,73.2,73.2,30.22,East,84,0.0,0.0,100,0.00,,,0.00,Meteorologica,2013-09-11 06:15:00,
2013-09-11 02:20:00,73.1,73.1,30.22,East,84,0.0,0.0,100,0.00,,,0.00,Meteorologica,2013-09-11 06:20:00,
2013-09-11 02:25:00,73.0,73.0,30.22,East,84,0.0,0.0,100,0.00,,,0.00,Meteorologica,2013-09-11 06:25:00,
2013-09-11 02:31:00,73.1,73.1,30.22,East,84,0.0,0.0,100,0.00,,,0.00,Meteorologica,2013-09-11 06:31:00,
2013-09-11 02:36:00,72.9,72.9,30.22,East,84,0.0,0.0,100,0.00,,,0.00,Meteorologica,2013-09-11 06:36:00,
2013-09-11 02:41:00,72.7,72.7,30.22,East,84,0.0,0.0,100,0.00,,,0.00,Meteorologica,2013-09-11 06:41:00,
2013-09-11 02:47:00,72.8,72.8,30.22,East,84,0.0,0.0,100,0.00,,,0.00,Meteorologica,2013-09-11 06:47:00,
2013-09-11 02:52:00,72.7,72.7,30.21,East,84,0.0,0.0,100,0.00,,,0.00,Meteorologica,2013-09-11 06:52:00,
2013-09-11 02:57:00,72.8,72.8,30.21,East,84,0.0,0.0,100,0.00,,,0.00,Meteorologica,2013-09-11 06:57:00,
2013-09-11 03:02:00,72.7,72.7,30.22,East,84,0.0,0.0,100,0.00,,,0.00,Meteorologica,2013-09-11 07:02:00,
2013-09-11 03:07:00,72.6,72.6,30.22,East,84,0.0,0.0,100,0.00,,,0.00,Meteorologica,2013-09-11 07:07:00,
2013-09-11 03:13:00,72.6,72.6,30.22,East,84,0.0,0.0,100,0.00,,,0.00,Meteorologica,2013-09-11 07:13:00,
2013-09-11 03:18:00,72.7,72.7,30.22,East,84,0.0,0.0,100,0.00,,,0.00,Meteorologica,2013-09-11 07:18:00,
2013-09-11 03:28:00,72.3,72.3,30.21,East,84,0.0,0.0,100,0.00,,,0.00,Meteorologica,2013-09-11 07:28:00,
2013-09-11 03:33:00,72.4,72.4,30.21,East,84,0.0,0.0,100,0.00,,,0.00,Meteorologica,2013-09-11 07:33:00,
2013-09-11 03:38:00,72.2,72.2,30.22,East,84,0.0,0.0,100,0.00,,,0.00,Meteorologica,2013-09-11 07:38:00,
2013-09-11 03:43:00,72.3,72.3,30.22,East,84,0.0,0.0,100,0.00,,,0.00,Meteorologica,2013-09-11 07:43:00,
2013-09-11 03:49:00,72.3,72.3,30.22,East,84,0.0,0.0,100,0.00,,,0.00,Meteorologica,2013-09-11 07:49:00,
2013-09-11 03:54:00,72.3,72.3,30.22,East,84,0.0,0.0,100,0.00,,,0.00,Meteorologica,2013-09-11 07:54:00,
2013-09-11 03:59:00,72.1,72.1,30.22,East,84,0.0,0.0,100,0.00,,,0.00,Meteorologica,2013-09-11 07:59:00,
2013-09-11 04:04:00,72.1,72.1,30.22,East,84,0.0,0.0,100,0.00,,,0.00,Meteorologica,2013-09-11 08:04:00,
2013-09-11 04:09:00,71.9,71.9,30.22,East,84,0.0,0.0,100,0.00,,,0.00,Meteorologica,2013-09-11 08:09:00,
2013-09-11 04:15:00,71.8,71.8,30.22,East,84,0.0,0.0,100,0.00,,,0.00,Meteorologica,2013-09-11 08:15:00,
2013-09-11 04:20:00,71.8,71.8,30.22,East,84,0.0,0.0,100,0.00,,,0.00,Meteorologica,2013-09-11 08:20:00,
2013-09-11 04:25:00,71.8,71.8,30.22,East,84,0.0,0.0,100,0.00,,,0.00,Meteorologica,2013-09-11 08:25:00,
2013-09-11 04:30:00,71.7,71.7,30.22,East,84,0.0,0.0,100,0.00,,,0.00,Meteorologica,2013-09-11 08:30:00,
2013-09-11 04:35:00,71.6,71.6,30.22,East,84,0.0,0.0,100,0.00,,,0.00,Meteorologica,2013-09-11 08:35:00,
2013-09-11 04:41:00,71.5,71.5,30.22,East,84,0.0,0.0,100,0.00,,,0.00,Meteorologica,2013-09-11 08:41:00,
2013-09-11 04:46:00,71.7,71.7,30.22,East,84,0.0,0.0,100,0.00,,,0.00,Meteorologica,2013-09-11 08:46:00,
2013-09-11 04:51:00,71.7,71.7,30.22,East,84,0.0,0.0,100,0.00,,,0.00,Meteorologica,2013-09-11 08:51:00,
2013-09-11 04:56:00,71.6,71.6,30.22,East,84,0.0,0.0,100,0.00,,,0.00,Meteorologica,2013-09-11 08:56:00,
2013-09-11 05:02:00,71.6,71.6,30.22,East,84,0.0,0.0,100,0.00,,,0.00,Meteorologica,2013-09-11 09:02:00,
2013-09-11 05:07:00,71.6,71.6,30.22,East,84,0.0,0.0,100,0.00,,,0.00,Meteorologica,2013-09-11 09:07:00,
2013-09-11 05:12:00,71.7,71.7,30.22,East,84,0.0,0.0,100,0.00,,,0.00,Meteorologica,2013-09-11 09:12:00,
2013-09-11 05:17:00,71.5,71.5,30.22,East,84,0.0,0.0,100,0.00,,,0.00,Meteorologica,2013-09-11 09:17:00,
2013-09-11 05:22:00,71.6,71.6,30.22,East,84,0.0,0.0,100,0.00,,,0.00,Meteorologica,2013-09-11 09:22:00,
2013-09-11 05:27:00,71.5,71.5,30.22,East,84,0.0,0.0,100,0.00,,,0.00,Meteorologica,2013-09-11 09:27:00,
2013-09-11 05:32:00,71.4,71.4,30.22,East,84,0.0,0.0,100,0.00,,,0.00,Meteorologica,2013-09-11 09:32:00,
2013-09-11 05:38:00,71.3,71.3,30.23,East,84,0.0,0.0,100,0.00,,,0.00,Meteorologica,2013-09-11 09:38:00,
2013-09-11 05:43:00,71.3,71.3,30.23,East,84,0.0,0.0,100,0.00,,,0.00,Meteorologica,2013-09-11 09:43:00,
2013-09-11 05:48:00,71.2,71.2,30.23,East,84,0.0,0.0,100,0.00,,,0.00,Meteorologica,2013-09-11 09:48:00,
2013-09-11 05:53:00,71.0,71.0,30.23,East,84,0.0,0.0,100,0.00,,,0.00,Meteorologica,2013-09-11 09:53:00,
2013-09-11 05:59:00,71.0,71.0,30.23,East,84,0.0,0.0,100,0.00,,,0.00,Meteorologica,2013-09-11 09:59:00,
2013-09-11 06:04:00,70.9,71.0,30.23,East,84,0.0,0.0,100,0.00,,,0.00,Meteorologica,2013-09-11 10:04:00,
2013-09-11 06:09:00,70.9,70.9,30.23,East,84,0.0,0.0,100,0.00,,,0.00,Meteorologica,2013-09-11 10:09:00,
2013-09-11 06:14:00,70.8,70.8,30.23,East,84,0.0,0.0,100,0.00,,,0.00,Meteorologica,2013-09-11 10:14:00,
2013-09-11 06:20:00,70.8,70.8,30.23,East,84,0.0,0.0,100,0.00,,,0.00,Meteorologica,2013-09-11 10:20:00,
2013-09-11 06:25:00,70.8,70.8,30.23,East,84,0.0,0.0,100,0.00,,,0.00,Meteorologica,2013-09-11 10:25:00,
2013-09-11 06:30:00,70.7,70.7,30.23,East,84,0.0,0.0,100,0.00,,,0.00,Meteorologica,2013-09-11 10:30:00,
2013-09-11 06:35:00,70.7,70.7,30.23,East,84,0.0,0.0,100,0.00,,,0.00,Meteorologica,2013-09-11 10:35:00,
2013-09-11 06:40:00,70.6,70.6,30.23,East,84,0.0,0.0,100,0.00,,,0.00,Meteorologica,2013-09-11 10:40:00,
2013-09-11 06:45:00,70.6,70.6,30.24,East,84,0.0,0.0,100,0.00,,,0.00,Meteorologica,2013-09-11 10:45:00,
2013-09-11 06:51:00,70.6,70.6,30.24,East,84,0.0,0.0,100,0.00,,,0.00,Meteorologica,2013-09-11 10:51:00,
2013-09-11 06:56:00,70.6,70.6,30.24,East,84,0.0,0.0,100,0.00,,,0.00,Meteorologica,2013-09-11 10:56:00,
2013-09-11 07:01:00,70.4,70.4,30.24,East,84,0.0,0.0,100,0.00,,,0.00,Meteorologica,2013-09-11 11:01:00,
2013-09-11 07:06:00,70.5,70.5,30.24,East,84,0.0,0.0,100,0.00,,,0.00,Meteorologica,2013-09-11 11:06:00,
2013-09-11 07:12:00,70.4,70.4,30.24,East,84,0.0,0.0,100,0.00,,,0.00,Meteorologica,2013-09-11 11:12:00,
2013-09-11 07:17:00,70.4,70.4,30.24,East,84,0.0,0.0,100,0.00,,,0.00,Meteorologica,2013-09-11 11:17:00,
2013-09-11 07:22:00,70.3,70.3,30.24,East,84,0.0,0.0,100,0.00,,,0.00,Meteorologica,2013-09-11 11:22:00,
2013-09-11 07:27:00,70.4,70.4,30.24,East,84,0.0,0.0,100,0.00,,,0.00,Meteorologica,2013-09-11 11:27:00,
2013-09-11 07:33:00,70.1,70.1,30.25,East,84,0.0,0.0,100,0.00,,,0.00,Meteorologica,2013-09-11 11:33:00,
2013-09-11 07:38:00,70.1,70.1,30.25,East,84,0.0,0.0,100,0.00,,,0.00,Meteorologica,2013-09-11 11:38:00,
2013-09-11 07:43:00,70.0,70.0,30.25,East,84,0.0,0.0,100,0.00,,,0.00,Meteorologica,2013-09-11 11:43:00,
2013-09-11 07:48:00,70.1,70.1,30.25,East,84,0.0,0.0,100,0.00,,,0.00,Meteorologica,2013-09-11 11:48:00,
2013-09-11 07:53:00,70.0,70.0,30.25,East,84,0.0,0.0,100,0.00,,,0.00,Meteorologica,2013-09-11 11:53:00,
2013-09-11 07:58:00,70.1,70.1,30.25,East,84,0.0,0.0,100,0.00,,,0.00,Meteorologica,2013-09-11 11:58:00,
2013-09-11 08:04:00,70.1,70.1,30.25,East,84,0.0,0.0,100,0.00,,,0.00,Meteorologica,2013-09-11 12:04:00,
2013-09-11 08:09:00,70.2,70.2,30.25,East,84,0.0,0.0,100,0.00,,,0.00,Meteorologica,2013-09-11 12:09:00,
2013-09-11 08:15:00,70.1,70.1,30.25,East,84,0.0,0.0,100,0.00,,,0.00,Meteorologica,2013-09-11 12:15:00,
2013-09-11 08:20:00,70.2,70.2,30.25,East,84,0.0,0.0,100,0.00,,,0.00,Meteorologica,2013-09-11 12:20:00,
2013-09-11 08:25:00,70.3,70.3,30.25,East,84,0.0,0.0,100,0.00,,,0.00,Meteorologica,2013-09-11 12:25:00,
2013-09-11 08:30:00,70.5,70.5,30.26,East,84,0.0,0.0,100,0.00,,,0.00,Meteorologica,2013-09-11 12:30:00,
2013-09-11 08:35:00,70.6,70.6,30.26,East,84,0.0,0.0,100,0.00,,,0.00,Meteorologica,2013-09-11 12:35:00,
2013-09-11 08:40:00,71.0,71.0,30.26,East,84,0.0,0.0,100,0.00,,,0.00,Meteorologica,2013-09-11 12:40:00,
2013-09-11 08:45:00,71.3,71.3,30.26,East,84,0.0,0.0,100,0.00,,,0.00,Meteorologica,2013-09-11 12:45:00,
2013-09-11 08:51:00,71.6,71.6,30.26,East,84,0.0,0.0,100,0.00,,,0.00,Meteorologica,2013-09-11 12:51:00,
2013-09-11 08:56:00,71.9,71.9,30.27,East,84,0.0,0.0,100,0.00,,,0.00,Meteorologica,2013-09-11 12:56:00,
2013-09-11 09:01:00,72.0,72.0,30.27,East,84,0.0,0.0,100,0.00,,,0.00,Meteorologica,2013-09-11 13:01:00,
2013-09-11 09:06:00,72.3,72.3,30.27,East,84,0.0,0.0,100,0.00,,,0.00,Meteorologica,2013-09-11 13:06:00,
2013-09-11 09:12:00,72.4,72.4,30.27,East,84,0.0,0.0,100,0.00,,,0.00,Meteorologica,2013-09-11 13:12:00,
2013-09-11 09:17:00,72.6,72.6,30.27,East,84,0.0,0.0,100,0.00,,,0.00,Meteorologica,2013-09-11 13:17:00,
2013-09-11 09:22:00,72.9,72.9,30.27,ENE,76,0.4,0.0,100,0.00,,,0.00,Meteorologica,2013-09-11 13:22:00,
2013-09-11 09:27:00,73.0,73.0,30.27,ENE,76,0.0,0.0,100,0.00,,,0.00,Meteorologica,2013-09-11 13:27:00,
2013-09-11 09:32:00,73.3,73.3,30.26,ENE,76,0.0,0.0,100,0.00,,,0.00,Meteorologica,2013-09-11 13:32:00,
2013-09-11 09:37:00,73.9,73.9,30.26,East,81,0.5,1.8,100,0.00,,,0.00,Meteorologica,2013-09-11 13:37:00,
2013-09-11 09:42:00,74.8,74.8,30.26,ESE,103,1.9,2.4,100,0.00,,,0.00,Meteorologica,2013-09-11 13:42:00,
2013-09-11 09:47:00,75.8,75.8,30.26,SW,230,2.4,3.8,100,0.00,,,0.00,Meteorologica,2013-09-11 13:47:00,
2013-09-11 09:52:00,76.8,74.8,30.27,SE,127,0.5,3.6,93,0.00,,,0.00,Meteorologica,2013-09-11 13:52:00,
2013-09-11 09:57:00,77.8,71.5,30.27,SSW,197,1.0,3.5,80,0.00,,,0.00,Meteorologica,2013-09-11 13:57:00,
2013-09-11 10:02:00,78.5,71.8,30.26,SW,214,2.3,4.5,79,0.00,,,0.00,Meteorologica,2013-09-11 14:02:00,
2013-09-11 10:07:00,79.3,71.6,30.27,SSW,213,0.8,4.8,77,0.00,,,0.00,Meteorologica,2013-09-11 14:07:00,
2013-09-11 10:12:00,80.0,71.0,30.27,SSW,194,1.7,3.9,73,0.00,,,0.00,Meteorologica,2013-09-11 14:12:00,
2013-09-11 10:18:00,80.5,70.7,30.27,East,79,0.0,4.8,71,0.00,,,0.00,Meteorologica,2013-09-11 14:18:00,
2013-09-11 10:23:00,80.9,70.5,30.27,SW,234,0.0,4.0,70,0.00,,,0.00,Meteorologica,2013-09-11 14:23:00,
2013-09-11 10:28:00,81.4,70.3,30.27,South,173,1.0,4.3,68,0.00,,,0.00,Meteorologica,2013-09-11 14:28:00,
2013-09-11 10:33:00,81.7,70.4,30.27,West,271,0.0,3.5,68,0.00,,,0.00,Meteorologica,2013-09-11 14:33:00,
2013-09-11 10:38:00,82.1,70.5,30.27,SSE,155,0.1,3.0,67,0.00,,,0.00,Meteorologica,2013-09-11 14:38:00,
2013-09-11 10:43:00,82.4,69.3,30.27,SW,215,1.4,3.6,64,0.00,,,0.00,Meteorologica,2013-09-11 14:43:00,
2013-09-11 10:48:00,82.8,70.0,30.27,SSW,199,0.3,3.7,64,0.00,,,0.00,Meteorologica,2013-09-11 14:48:00,
2013-09-11 10:53:00,83.3,69.9,30.26,SSW,193,2.3,5.3,63,0.00,,,0.00,Meteorologica,2013-09-11 14:53:00,
2013-09-11 10:58:00,83.4,67.7,30.27,SW,234,3.3,5.6,58,0.00,,,0.00,Meteorologica,2013-09-11 14:58:00,
2013-09-11 11:03:00,83.8,67.2,30.27,WSW,256,2.9,6.9,57,0.00,,,0.00,Meteorologica,2013-09-11 15:03:00,
2013-09-11 11:08:00,83.9,66.8,30.27,ENE,74,2.8,6.0,56,0.00,,,0.00,Meteorologica,2013-09-11 15:08:00,
2013-09-11 11:13:00,84.5,67.7,30.27,West,269,0.0,5.8,56,0.00,,,0.00,Meteorologica,2013-09-11 15:13:00,
2013-09-11 11:18:00,84.6,66.9,30.26,NE,50,0.9,4.5,55,0.00,,,0.00,Meteorologica,2013-09-11 15:18:00,
2013-09-11 11:23:00,84.5,65.9,30.26,West,261,0.5,4.7,53,0.00,,,0.00,Meteorologica,2013-09-11 15:23:00,
2013-09-11 11:28:00,84.8,67.0,30.26,WSW,245,0.0,5.3,54,0.00,,,0.00,Meteorologica,2013-09-11 15:28:00,
2013-09-11 11:33:00,85.2,67.2,30.26,WNW,296,1.2,4.7,54,0.00,,,0.00,Meteorologica,2013-09-11 15:33:00,
2013-09-11 11:39:00,85.4,67.5,30.26,ESE,115,0.0,3.5,54,0.00,,,0.00,Meteorologica,2013-09-11 15:39:00,
2013-09-11 11:44:00,85.6,67.8,30.26,SSW,195,3.8,4.8,54,0.00,,,0.00,Meteorologica,2013-09-11 15:44:00,
2013-09-11 11:48:00,85.8,67.4,30.26,SSE,164,1.6,5.0,54,0.00,,,0.00,Meteorologica,2013-09-11 15:48:00,
2013-09-11 11:53:00,86.2,64.7,30.26,WSW,248,2.1,5.2,48,0.00,,,0.00,Meteorologica,2013-09-11 15:53:00,
2013-09-11 11:59:00,86.8,65.8,30.25,SW,225,2.1,5.2,49,0.00,,,0.00,Meteorologica,2013-09-11 15:59:00,
2013-09-11 12:04:00,87.2,66.5,30.25,South,176,2.0,5.2,50,0.00,,,0.00,Meteorologica,2013-09-11 16:04:00,
2013-09-11 12:09:00,87.5,66.4,30.25,ESE,121,1.7,5.6,49,0.00,,,0.00,Meteorologica,2013-09-11 16:09:00,
2013-09-11 12:14:00,87.5,66.4,30.25,SW,221,1.8,6.5,49,0.00,,,0.00,Meteorologica,2013-09-11 16:14:00,
2013-09-11 12:19:00,87.8,66.8,30.25,SW,218,2.1,6.8,49,0.00,,,0.00,Meteorologica,2013-09-11 16:19:00,
2013-09-11 12:24:00,88.1,66.4,30.25,East,88,0.2,4.5,48,0.00,,,0.00,Meteorologica,2013-09-11 16:24:00,
2013-09-11 12:29:00,87.6,66.7,30.24,SW,217,0.0,2.9,49,0.00,,,0.00,Meteorologica,2013-09-11 16:29:00,
2013-09-11 12:34:00,87.1,67.4,30.24,West,279,0.4,4.0,51,0.00,,,0.00,Meteorologica,2013-09-11 16:34:00,
2013-09-11 12:39:00,87.2,67.3,30.24,South,187,1.8,5.8,51,0.00,,,0.00,Meteorologica,2013-09-11 16:39:00,
2013-09-11 12:44:00,87.2,65.8,30.24,SSE,163,0.0,3.5,48,0.00,,,0.00,Meteorologica,2013-09-11 16:44:00,
2013-09-11 12:49:00,87.5,67.0,30.24,East,80,0.0,3.3,50,0.00,,,0.00,Meteorologica,2013-09-11 16:49:00,
2013-09-11 12:54:00,86.3,66.3,30.24,ENE,77,0.0,3.3,51,0.00,,,0.00,Meteorologica,2013-09-11 16:54:00,
2013-09-11 12:59:00,85.7,67.3,30.24,ENE,77,0.0,0.0,53,0.00,,,0.00,Meteorologica,2013-09-11 16:59:00,
2013-09-11 13:04:00,85.7,67.1,30.24,ENE,67,0.3,0.0,53,0.00,,,0.00,Meteorologica,2013-09-11 17:04:00,
2013-09-11 13:09:00,86.1,66.5,30.23,ENE,67,0.0,2.0,51,0.00,,,0.00,Meteorologica,2013-09-11 17:09:00,
2013-09-11 13:14:00,86.0,67.4,30.23,SSW,206,3.2,0.0,53,0.00,,,0.00,Meteorologica,2013-09-11 17:14:00,
2013-09-11 13:19:00,86.2,66.3,30.23,WSW,255,2.0,5.9,51,0.00,,,0.00,Meteorologica,2013-09-11 17:19:00,
2013-09-11 13:24:00,86.5,66.8,30.23,East,87,0.4,7.2,51,0.00,,,0.00,Meteorologica,2013-09-11 17:24:00,
2013-09-11 13:29:00,86.9,66.7,30.23,SSW,201,2.6,3.8,51,0.00,,,0.00,Meteorologica,2013-09-11 17:29:00,
2013-09-11 13:34:00,87.4,66.4,30.23,ENE,71,2.4,4.9,49,0.00,,,0.00,Meteorologica,2013-09-11 17:34:00,
2013-09-11 13:39:00,87.1,66.8,30.22,SE,135,0.1,3.5,50,0.00,,,0.00,Meteorologica,2013-09-11 17:39:00,
2013-09-11 13:44:00,86.4,67.7,30.22,NE,47,0.0,4.0,53,0.00,,,0.00,Meteorologica,2013-09-11 17:44:00,
2013-09-11 13:50:00,85.5,67.3,30.22,NE,47,0.0,0.0,54,0.00,,,0.00,Meteorologica,2013-09-11 17:50:00,
2013-09-11 13:55:00,85.0,66.9,30.22,NNW,327,0.8,0.0,54,0.00,,,0.00,Meteorologica,2013-09-11 17:55:00,
2013-09-11 14:00:00,84.5,66.9,30.22,NNW,327,0.0,2.4,55,0.00,,,0.00,Meteorologica,2013-09-11 18:00:00,
2013-09-11 14:05:00,84.3,66.8,30.22,SSE,151,0.0,2.2,55,0.00,,,0.00,Meteorologica,2013-09-11 18:05:00,
2013-09-11 14:10:00,84.5,67.2,30.22,SSE,149,0.0,4.5,55,0.00,,,0.00,Meteorologica,2013-09-11 18:10:00,
2013-09-11 14:15:00,85.1,66.8,30.21,SSW,211,0.2,0.0,54,0.00,,,0.00,Meteorologica,2013-09-11 18:15:00,
2013-09-11 14:20:00,85.8,65.5,30.21,SE,144,2.6,2.8,50,0.00,,,0.00,Meteorologica,2013-09-11 18:20:00,
2013-09-11 14:25:00,86.5,66.6,30.20,SE,132,0.0,4.8,51,0.00,,,0.00,Meteorologica,2013-09-11 18:25:00,
2013-09-11 14:30:00,87.3,66.8,30.20,SSW,203,0.0,4.0,50,0.00,,,0.00,Meteorologica,2013-09-11 18:30:00,
2013-09-11 14:35:00,87.8,66.2,30.20,SSW,199,0.0,4.7,48,0.00,,,0.00,Meteorologica,2013-09-11 18:35:00,
2013-09-11 14:40:00,88.0,65.5,30.19,ESE,111,3.2,4.6,47,0.00,,,0.00,Meteorologica,2013-09-11 18:40:00,
2013-09-11 14:45:00,88.6,65.4,30.19,SSW,194,1.9,6.1,46,0.00,,,0.00,Meteorologica,2013-09-11 18:45:00,
2013-09-11 14:50:00,89.0,64.7,30.19,SSW,204,1.2,6.1,44,0.00,,,0.00,Meteorologica,2013-09-11 18:50:00,
2013-09-11 14:55:00,89.4,64.4,30.19,NW,319,0.8,5.5,43,0.00,,,0.00,Meteorologica,2013-09-11 18:55:00,
2013-09-11 15:00:00,89.1,65.3,30.19,SSW,202,0.5,3.4,45,0.00,,,0.00,Meteorologica,2013-09-11 19:00:00,
2013-09-11 15:05:00,89.0,65.4,30.19,ESE,112,1.6,4.3,45,0.00,,,0.00,Meteorologica,2013-09-11 19:05:00,
2013-09-11 15:10:00,88.8,64.1,30.18,ESE,117,0.4,3.3,43,0.00,,,0.00,Meteorologica,2013-09-11 19:10:00,
2013-09-11 15:15:00,88.5,64.1,30.18,SSE,148,1.8,3.1,44,0.00,,,0.00,Meteorologica,2013-09-11 19:15:00,
2013-09-11 15:20:00,88.6,63.0,30.18,SW,220,2.2,4.8,42,0.00,,,0.00,Meteorologica,2013-09-11 19:20:00,
2013-09-11 15:25:00,88.9,64.2,30.17,SSW,201,2.7,4.4,44,0.00,,,0.00,Meteorologica,2013-09-11 19:25:00,
2013-09-11 15:30:00,88.9,63.8,30.17,East,89,3.0,4.2,43,0.00,,,0.00,Meteorologica,2013-09-11 19:30:00,
2013-09-11 15:35:00,89.1,63.3,30.16,WSW,254,2.1,4.3,42,0.00,,,0.00,Meteorologica,2013-09-11 19:35:00,
2013-09-11 15:40:00,89.0,63.7,30.16,NNE,23,0.6,4.0,43,0.00,,,0.00,Meteorologica,2013-09-11 19:40:00,
2013-09-11 15:45:00,88.9,62.8,30.16,WSW,238,0.8,5.5,41,0.00,,,0.00,Meteorologica,2013-09-11 19:45:00,
2013-09-11 15:50:00,88.5,63.9,30.16,WSW,255,0.0,3.8,44,0.00,,,0.00,Meteorologica,2013-09-11 19:50:00,
2013-09-11 15:55:00,87.8,63.7,30.16,WSW,255,0.0,0.8,44,0.00,,,0.00,Meteorologica,2013-09-11 19:55:00,
2013-09-11 16:00:00,87.5,63.9,30.16,South,175,0.0,1.5,45,0.00,,,0.00,Meteorologica,2013-09-11 20:00:00,
2013-09-11 16:05:00,87.0,64.1,30.15,South,175,0.0,0.0,46,0.00,,,0.00,Meteorologica,2013-09-11 20:05:00,
2013-09-11 16:11:00,86.7,64.3,30.15,South,175,0.0,0.0,47,0.00,,,0.00,Meteorologica,2013-09-11 20:11:00,
2013-09-11 16:16:00,86.3,62.8,30.15,South,175,0.0,0.0,45,0.00,,,0.00,Meteorologica,2013-09-11 20:16:00,
2013-09-11 16:21:00,86.0,61.5,30.15,South,175,0.0,0.0,43,0.00,,,0.00,Meteorologica,2013-09-11 20:21:00,
2013-09-11 16:26:00,85.7,61.1,30.15,South,175,0.0,0.0,43,0.00,,,0.00,Meteorologica,2013-09-11 20:26:00,
2013-09-11 16:31:00,85.8,60.8,30.15,South,175,0.0,0.0,43,0.00,,,0.00,Meteorologica,2013-09-11 20:31:00,
2013-09-11 16:36:00,85.8,61.5,30.15,South,175,0.0,0.0,44,0.00,,,0.00,Meteorologica,2013-09-11 20:36:00,
2013-09-11 16:41:00,85.8,60.5,30.15,South,175,0.0,0.0,42,0.00,,,0.00,Meteorologica,2013-09-11 20:41:00,
2013-09-11 16:46:00,85.8,60.5,30.15,South,175,0.0,0.0,42,0.00,,,0.00,Meteorologica,2013-09-11 20:46:00,
2013-09-11 16:51:00,85.9,61.4,30.15,South,175,0.0,0.0,43,0.00,,,0.00,Meteorologica,2013-09-11 20:51:00,
2013-09-11 16:56:00,85.6,60.5,30.15,South,175,0.0,0.0,42,0.00,,,0.00,Meteorologica,2013-09-11 20:56:00,
2013-09-11 17:01:00,85.6,61.0,30.14,South,175,0.0,0.0,43,0.00,,,0.00,Meteorologica,2013-09-11 21:01:00,
2013-09-11 17:06:00,85.6,61.4,30.15,South,175,0.0,0.0,44,0.00,,,0.00,Meteorologica,2013-09-11 21:06:00,
2013-09-11 17:11:00,85.6,61.2,30.15,South,175,0.0,0.0,43,0.00,,,0.00,Meteorologica,2013-09-11 21:11:00,
2013-09-11 17:16:00,85.5,61.5,30.15,South,175,0.0,0.0,44,0.00,,,0.00,Meteorologica,2013-09-11 21:16:00,
2013-09-11 17:21:00,85.4,61.6,30.15,South,175,0.0,0.0,45,0.00,,,0.00,Meteorologica,2013-09-11 21:21:00,
2013-09-11 17:26:00,85.3,63.3,30.14,South,175,0.0,0.0,47,0.00,,,0.00,Meteorologica,2013-09-11 21:26:00,
2013-09-11 17:31:00,85.5,62.9,30.14,South,175,0.0,0.0,46,0.00,,,0.00,Meteorologica,2013-09-11 21:31:00,
2013-09-11 17:36:00,85.2,61.9,30.14,South,175,0.0,0.0,45,0.00,,,0.00,Meteorologica,2013-09-11 21:36:00,
2013-09-11 17:41:00,85.4,63.2,30.14,South,175,0.0,0.0,47,0.00,,,0.00,Meteorologica,2013-09-11 21:41:00,
2013-09-11 17:46:00,85.4,63.8,30.14,WSW,238,1.2,0.0,48,0.00,,,0.00,Meteorologica,2013-09-11 21:46:00,
2013-09-11 17:51:00,85.4,64.1,30.14,SW,221,0.0,2.2,48,0.00,,,0.00,Meteorologica,2013-09-11 21:51:00,
2013-09-11 17:56:00,85.4,63.8,30.14,SW,221,0.0,0.0,48,0.00,,,0.00,Meteorologica,2013-09-11 21:56:00,
2013-09-11 18:01:00,85.2,64.1,30.14,SW,221,0.0,0.0,49,0.00,,,0.00,Meteorologica,2013-09-11 22:01:00,
2013-09-11 18:06:00,85.3,64.2,30.14,SW,221,0.0,0.0,49,0.00,,,0.00,Meteorologica,2013-09-11 22:06:00,
2013-09-11 18:11:00,85.1,63.9,30.14,SW,221,0.0,0.0,49,0.00,,,0.00,Meteorologica,2013-09-11 22:11:00,
2013-09-11 18:16:00,85.2,64.0,30.14,SW,221,0.0,0.0,48,0.00,,,0.00,Meteorologica,2013-09-11 22:16:00,
2013-09-11 18:22:00,85.2,64.2,30.15,SW,221,0.0,0.0,49,0.00,,,0.00,Meteorologica,2013-09-11 22:22:00,
2013-09-11 18:27:00,85.2,64.3,30.15,SW,221,0.0,0.0,49,0.00,,,0.00,Meteorologica,2013-09-11 22:27:00,
2013-09-11 18:32:00,85.2,64.4,30.15,SW,221,0.0,0.0,49,0.00,,,0.00,Meteorologica,2013-09-11 22:32:00,
2013-09-11 18:37:00,85.0,64.6,30.15,SW,221,0.0,0.0,50,0.00,,,0.00,Meteorologica,2013-09-11 22:37:00,
2013-09-11 18:42:00,84.8,64.8,30.15,SW,221,0.0,0.0,51,0.00,,,0.00,Meteorologica,2013-09-11 22:42:00,
2013-09-11 18:47:00,84.8,65.1,30.14,SW,221,0.0,0.0,51,0.00,,,0.00,Meteorologica,2013-09-11 22:47:00,
2013-09-11 18:52:00,84.5,65.1,30.14,SW,221,0.0,0.0,52,0.00,,,0.00,Meteorologica,2013-09-11 22:52:00,
2013-09-11 18:57:00,84.4,65.5,30.14,SW,221,0.0,0.0,52,0.00,,,0.00,Meteorologica,2013-09-11 22:57:00,
2013-09-11 19:02:00,84.3,65.7,30.14,SW,221,0.0,0.0,53,0.00,,,0.00,Meteorologica,2013-09-11 23:02:00,
2013-09-11 20:00:00,81.6,70.0,30.14,SW,221,0.0,0.0,67,0.00,,,0.00,Meteorologica,2013-09-12 00:00:00,
2013-09-11 20:05:00,81.4,70.3,30.14,SSW,200,0.0,0.0,68,0.00,,,0.00,Meteorologica,2013-09-12 00:05:00,
2013-09-11 20:10:00,81.0,70.3,30.14,SSW,200,0.0,0.4,69,0.00,,,0.00,Meteorologica,2013-09-12 00:10:00,
2013-09-11 20:15:00,80.5,69.8,30.14,SSW,200,0.0,0.0,69,0.00,,,0.00,Meteorologica,2013-09-12 00:15:00,
2013-09-11 20:21:00,80.3,69.1,30.14,SSW,200,0.0,0.0,68,0.00,,,0.00,Meteorologica,2013-09-12 00:21:00,
2013-09-11 20:26:00,80.1,68.6,30.14,SSW,200,0.0,0.0,67,0.00,,,0.00,Meteorologica,2013-09-12 00:26:00,
2013-09-11 20:31:00,80.0,68.3,30.14,SSW,200,0.0,0.0,67,0.00,,,0.00,Meteorologica,2013-09-12 00:31:00,
2013-09-11 20:37:00,79.8,68.1,30.14,SSW,200,0.0,0.0,67,0.00,,,0.00,Meteorologica,2013-09-12 00:37:00,
2013-09-11 20:42:00,79.5,68.2,30.14,SSW,200,0.0,0.0,67,0.00,,,0.00,Meteorologica,2013-09-12 00:42:00,
2013-09-11 20:47:00,79.4,67.9,30.14,SSW,200,0.0,0.0,67,0.00,,,0.00,Meteorologica,2013-09-12 00:47:00,
2013-09-11 20:52:00,79.3,67.8,30.14,SSW,200,0.0,0.0,67,0.00,,,0.00,Meteorologica,2013-09-12 00:52:00,
2013-09-11 20:57:00,79.0,67.8,30.14,SSW,200,0.0,0.0,68,0.00,,,0.00,Meteorologica,2013-09-12 00:57:00,
2013-09-11 21:02:00,78.8,67.2,30.14,SSW,200,0.0,0.0,67,0.00,,,0.00,Meteorologica,2013-09-12 01:02:00,
2013-09-11 21:08:00,78.7,67.1,30.14,SSW,200,0.0,0.0,67,0.00,,,0.00,Meteorologica,2013-09-12 01:08:00,
2013-09-11 21:13:00,78.5,66.9,30.14,SSW,200,0.0,0.0,67,0.00,,,0.00,Meteorologica,2013-09-12 01:13:00,
2013-09-11 21:18:00,78.3,67.3,30.14,SSW,200,0.0,0.0,68,0.00,,,0.00,Meteorologica,2013-09-12 01:18:00,
2013-09-11 21:23:00,78.0,66.6,30.14,SSW,200,0.0,0.0,67,0.00,,,0.00,Meteorologica,2013-09-12 01:23:00,
2013-09-11 21:28:00,77.9,66.6,30.14,SSW,200,0.0,0.0,67,0.00,,,0.00,Meteorologica,2013-09-12 01:28:00,
2013-09-11 21:33:00,77.5,65.7,30.14,SSW,200,0.0,0.0,66,0.00,,,0.00,Meteorologica,2013-09-12 01:33:00,
2013-09-11 21:38:00,77.5,66.2,30.14,SSW,200,0.0,0.0,67,0.00,,,0.00,Meteorologica,2013-09-12 01:38:00,
2013-09-11 21:43:00,77.3,66.5,30.15,SSW,200,0.0,0.0,68,0.00,,,0.00,Meteorologica,2013-09-12 01:43:00,
2013-09-11 21:48:00,77.2,66.9,30.15,SSW,200,0.0,0.0,70,0.00,,,0.00,Meteorologica,2013-09-12 01:48:00,
2013-09-11 22:00:00,76.9,67.1,30.15,SSW,200,0.0,0.0,71,0.00,,,0.00,Meteorologica,2013-09-12 02:00:00,
2013-09-11 22:05:00,77.0,67.6,30.15,SSW,200,0.0,0.0,72,0.00,,,0.00,Meteorologica,2013-09-12 02:05:00,
2013-09-11 22:10:00,76.6,67.5,30.15,SSW,200,0.0,0.0,73,0.00,,,0.00,Meteorologica,2013-09-12 02:10:00,
2013-09-11 22:15:00,76.3,66.8,30.15,SSW,200,0.0,0.0,72,0.00,,,0.00,Meteorologica,2013-09-12 02:15:00,
2013-09-11 22:20:00,76.1,66.7,30.15,SSW,200,0.0,0.0,72,0.00,,,0.00,Meteorologica,2013-09-12 02:20:00,
2013-09-11 22:25:00,75.9,67.0,30.16,SSW,200,0.0,0.0,73,0.00,,,0.00,Meteorologica,2013-09-12 02:25:00,
2013-09-11 22:30:00,75.8,67.2,30.16,SSW,200,0.0,0.0,74,0.00,,,0.00,Meteorologica,2013-09-12 02:30:00,
2013-09-11 22:35:00,75.8,67.8,30.16,SSW,200,0.0,0.0,75,0.00,,,0.00,Meteorologica,2013-09-12 02:35:00,
2013-09-11 22:40:00,75.6,68.2,30.16,SSW,200,0.0,0.0,77,0.00,,,0.00,Meteorologica,2013-09-12 02:40:00,
2013-09-11 22:46:00,75.5,69.0,30.16,SSW,200,0.0,0.0,80,0.00,,,0.00,Meteorologica,2013-09-12 02:46:00,
2013-09-11 22:51:00,75.4,69.2,30.16,SSW,200,0.0,0.0,81,0.00,,,0.00,Meteorologica,2013-09-12 02:51:00,
2013-09-11 22:56:00,75.2,69.2,30.16,SSW,200,0.0,0.0,81,0.00,,,0.00,Meteorologica,2013-09-12 02:56:00,
2013-09-11 23:01:00,75.1,70.0,30.15,SSW,200,0.0,0.0,84,0.00,,,0.00,Meteorologica,2013-09-12 03:01:00,
2013-09-11 23:06:00,75.0,70.3,30.15,SSW,200,0.0,0.0,85,0.00,,,0.00,Meteorologica,2013-09-12 03:06:00,
2013-09-11 23:11:00,74.9,70.7,30.15,SSW,200,0.0,0.0,86,0.00,,,0.00,Meteorologica,2013-09-12 03:11:00,
2013-09-11 23:16:00,74.9,71.4,30.15,SSW,200,0.0,0.0,88,0.00,,,0.00,Meteorologica,2013-09-12 03:16:00,
2013-09-11 23:21:00,74.7,71.9,30.15,SSW,200,0.0,0.0,91,0.00,,,0.00,Meteorologica,2013-09-12 03:21:00,
2013-09-11 23:26:00,74.7,72.7,30.15,SSW,200,0.0,0.0,93,0.00,,,0.00,Meteorologica,2013-09-12 03:26:00,
2013-09-11 23:31:00,74.7,74.5,30.15,SSW,200,0.0,0.0,99,0.00,,,0.00,Meteorologica,2013-09-12 03:31:00,
2013-09-11 23:37:00,74.6,74.5,30.15,SSW,200,0.0,0.0,99,0.00,,,0.00,Meteorologica,2013-09-12 03:37:00,
2013-09-11 23:42:00,74.7,74.8,30.14,SSW,200,0.0,0.0,99,0.00,,,0.00,Meteorologica,2013-09-12 03:42:00,
2013-09-11 23:47:00,74.5,74.5,30.14,SSW,200,0.0,0.0,100,0.00,,,0.00,Meteorologica,2013-09-12 03:47:00,
2013-09-11 23:52:00,74.7,74.7,30.14,SSW,200,0.0,0.0,100,0.00,,,0.00,Meteorologica,2013-09-12 03:52:00,